RH
79 83 83 80 77 74 72 70 73 73 72 69 66 67 73 78 59 61 63 62 68 71 74 68 68 67 66 62 61 60 60 59 57
78 81 85 82 80 78 76 74 73 76 78 75 72 72 83 64 60 59 61 64 75 71 72 72 71 70 70 67 59 57 56 58 56
84 85 84 83 80 80 80 78 77 77 77 79 79 84 85 66 62 63 62 70 77 70 71 73 73 72 72 67 65 61 60 65 62
78 76 81 88 85 84 83 80 81 80 80 84 86 89 89 66 60 62 59 75 73 75 72 73 73 71 72 71 68 66 64 66 63
59 63 68 71 70 75 81 87 84 84 86 86 88 89 92 68 68 65 59 79 73 70 73 73 74 72 72 72 70 70 69 68 70
42 61 66 63 62 61 65 72 82 90 90 90 91 94 83 79 69 67 80 82 73 68 70 72 74 76 74 75 74 71 71 70 71
50 61 64 64 66 64 64 66 72 73 65 80 91 89 91 91 83 74 87 86 81 74 68 74 75 76 78 77 75 72 72 72 68
50 59 61 56 62 49 55 60 60 58 61 59 57 64 71 84 88 83 90 89 87 82 77 73 75 79 79 80 76 77 76 74 71
50 49 56 67 68 64 69 67 59 54 52 55 54 50 54 52 67 73 93 91 87 85 82 78 76 75 78 76 78 81 79 79 76
56 55 56 58 67 67 68 67 63 60 58 55 55 53 52 54 57 59 90 94 88 81 78 80 78 75 74 76 80 83 83 80 80
59 59 59 58 61 59 68 68 68 67 65 60 56 56 58 54 55 57 55 88 89 74 66 65 71 77 79 75 79 83 84 84 82
66 64 63 61 59 64 66 64 66 67 65 66 62 61 58 60 57 57 58 59 80 85 70 65 65 62 65 77 77 78 83 86 85
65 64 62 63 64 63 67 70 70 71 72 72 68 68 66 62 59 62 61 64 60 69 75 75 69 65 64 69 74 80 80 84 86
64 65 64 63 66 65 67 66 75 75 72 67 63 68 67 67 60 61 60 62 66 66 75 87 87 84 77 67 70 72 80 83 84
68 67 66 67 67 65 69 71 67 69 72 65 61 67 72 70 67 62 62 62 65 63 64 70 76 92 89 87 77 75 72 80 85
70 69 70 69 68 68 71 72 74 68 68 78 68 73 70 68 64 68 64 61 59 64 65 71 74 73 86 82 82 87 80 77 81
70 74 74 73 72 71 71 74 76 73 70 76 82 75 62 64 57 59 62 59 68 63 64 64 67 69 74 82 89 85 85 87 80
81 79 79 78 77 76 77 77 81 79 72 75 76 75 72 69 59 55 59 61 63 64 63 62 65 62 70 78 83 91 92 90 85
82 83 81 80 80 80 79 74 77 80 78 75 70 78 79 81 72 62 67 67 64 64 63 66 67 67 76 80 90 93 92 92 88
77 81 82 82 82 81 81 79 76 75 81 81 82 82 79 81 95 83 68 60 58 63 64 66 70 70 74 80 89 98 94 90 85
Wind_Speed
8 9 3 3 2 2 3 3 3 3 3 3 3 3 1 2 3 3 3 6 7 7 6 6 5 4 4 3 2 2 3 1 1
8 8 7 3 4 5 5 6 6 6 6 6 5 4 3 5 5 5 5 5 10 9 7 8 9 8 7 6 5 4 3 3 2
8 9 9 8 6 7 7 8 8 9 9 9 8 6 5 5 6 6 6 7 10 12 11 10 10 10 11 10 9 7 7 8 6
11 11 11 12 9 9 9 9 11 11 11 10 9 8 8 7 5 6 5 7 11 13 13 11 13 12 12 12 12 12 10 7 6
11 10 10 10 11 11 11 11 9 10 12 10 10 10 9 9 7 6 6 11 13 14 14 16 15 15 15 15 14 13 13 12 11
8 9 11 11 11 10 9 9 8 8 8 9 9 7 5 7 6 6 9 12 15 16 17 16 15 17 16 15 15 16 15 14 13
6 7 10 10 11 10 11 10 9 7 5 4 5 3 5 5 7 6 12 14 17 17 17 17 16 16 18 17 16 17 17 17 17
4 3 4 5 7 4 6 6 5 6 5 5 5 6 6 4 5 7 11 14 18 19 18 18 17 17 18 19 20 19 18 18 18
4 4 4 4 4 5 5 4 5 6 6 6 7 7 7 5 5 7 9 13 15 17 18 19 18 18 18 21 21 20 20 19 18
4 4 4 4 4 4 5 5 5 6 6 6 6 7 7 8 5 6 8 11 14 15 17 18 19 20 20 21 21 21 20 21 20
5 5 4 4 4 5 4 5 5 5 5 7 7 8 7 8 8 7 8 10 13 15 16 17 18 20 22 22 22 22 22 21 21
5 4 4 4 5 6 4 4 4 5 5 7 7 7 8 8 8 7 7 8 9 12 15 17 19 20 20 22 24 22 23 23 22
5 4 4 4 4 4 4 4 4 4 5 6 7 6 6 8 8 6 6 6 7 8 12 15 18 20 20 22 23 25 23 24 23
5 5 5 5 4 4 4 4 4 5 6 7 7 6 7 6 5 7 6 5 6 5 8 13 15 18 20 21 22 22 22 23 22
4 5 5 4 4 3 3 4 5 4 6 8 8 7 4 2 2 6 4 6 5 6 8 7 7 11 16 19 22 23 23 21 21
4 3 4 4 3 4 4 4 5 4 6 5 6 4 3 0 7 3 6 6 8 8 6 5 4 6 13 15 18 20 22 22 22
4 4 4 4 4 4 4 3 3 3 4 5 3 4 2 3 4 5 6 7 6 8 7 8 8 7 6 9 14 18 20 20 21
4 4 4 4 3 4 4 2 3 3 2 4 3 3 3 7 3 5 6 8 7 7 8 8 8 8 7 8 9 11 15 17 18
4 4 4 5 4 4 4 3 2 2 3 2 1 3 4 4 5 6 4 7 7 9 7 7 8 8 7 10 10 13 12 14 16
3 3 4 4 3 4 5 3 3 2 2 2 1 2 3 4 4 6 9 9 8 7 7 7 5 6 6 8 8 13 12 13 15
Wind_Direction
16 12 11 183 216 228 243 238 238 250 263 275 288 286 285 285 303 305 288 276 271 286 182 161 175 182 176 169 162 145 149 135 56
7 7 7 297 248 253 258 262 260 257 263 272 275 279 289 269 266 262 263 282 275 272 207 198 199 199 197 199 211 209 222 211 261
360 358 351 337 309 277 268 272 273 270 263 262 264 257 253 254 259 262 269 279 276 257 261 228 219 213 205 202 204 220 232 216 211
15 11 2 341 323 328 293 274 270 269 266 262 252 246 253 263 262 261 258 255 276 265 260 249 229 227 219 215 216 211 220 237 221
15 10 6 5 7 15 4 359 309 293 274 265 262 255 250 260 259 253 256 260 264 266 263 262 239 230 226 220 221 222 225 226 223
4 3 0 359 358 1 4 3 348 337 328 267 266 270 254 259 264 259 246 253 263 264 264 265 260 244 232 226 226 224 227 229 228
356 353 354 358 359 358 357 355 359 353 341 332 310 276 264 258 263 266 263 263 263 263 262 262 262 258 243 233 228 233 234 232 235
356 346 349 346 359 352 350 346 351 338 331 322 316 303 290 275 268 273 270 280 274 264 258 257 258 256 250 244 235 232 233 238 239
358 353 350 351 353 346 350 340 334 334 330 324 313 304 298 294 290 283 272 280 288 290 279 262 256 256 249 248 244 239 238 228 234
340 342 334 336 339 337 331 327 324 324 324 318 311 306 300 292 286 286 285 279 284 287 288 284 268 264 260 249 245 239 237 237 231
328 326 326 327 334 328 320 321 318 314 308 305 302 294 289 286 281 280 283 278 283 290 290 287 285 275 268 262 250 245 238 234 233
327 325 325 330 328 318 318 318 308 307 315 301 295 290 286 280 283 284 282 286 277 280 288 291 292 288 283 274 262 252 243 237 232
328 319 319 324 323 329 330 335 330 325 320 314 305 296 289 287 285 289 299 300 300 295 293 291 287 286 287 285 279 262 254 242 236
311 310 311 315 313 323 330 335 331 323 325 316 308 298 300 298 312 303 311 301 293 297 293 285 283 280 281 281 276 269 261 259 244
322 317 315 314 312 320 344 335 333 315 323 317 311 311 325 320 344 328 318 311 312 313 306 304 295 275 286 284 282 278 269 262 251
330 327 328 323 310 318 329 330 332 328 335 314 334 329 354 70 338 343 337 346 331 317 323 313 319 299 274 277 284 280 279 274 258
327 331 325 318 315 322 324 350 335 299 349 334 323 345 327 332 2 358 344 344 329 328 324 332 319 317 308 285 289 286 275 273 264
335 329 325 322 310 312 327 319 346 326 322 352 331 333 331 330 311 329 336 330 338 328 328 326 316 321 322 313 303 296 286 275 267
332 334 335 327 318 306 306 313 325 274 325 329 117 289 286 325 322 320 318 329 335 334 327 323 324 344 331 319 331 323 296 278 266
318 326 325 327 313 310 316 311 322 290 288 269 339 323 284 252 277 312 330 336 345 332 323 328 331 350 348 329 351 347 321 301 269